Location: Unspecified
(48.2082°N, 0.0000°E)
Time: 04:43:33
(UTC+00:00)

A-11 Canister half - Pass Details

Date: 14 August 2020
Orbit: 1514 x 1686 km, 47.2° (Epoch: 21 September)

Event Time Altitude Azimuth Distance (km) Brightness Sun altitude
Rises 21:26:18 0° 285° (WNW) 4,813 12.5 -18.6°
Reaches altitude 10° 21:29:23 10° 283° (WNW) 3,848 11.8 -18.9°
Maximum altitude 21:39:07 66° 204° (SSW) 1,781 9.1 -19.9°
Enters shadow 21:44:58 29° 132° (SE) 2,738 9.7 -20.5°
